Theta_e
325 314 304 305 298 296 292 297 302 303 306 310 311 315 322 326 324 313 343 348 355 356 359 362 364 365 364 362 361 360 360 359 359 359 358 359 360 361 361 361 361 360 357 357 354 355 355 354 353
316 310 303 299 294 290 293 299 301 305 308 311 313 328 331 328 338 341 343 351 354 357 359 359 364 364 363 361 360 360 360 359 359 359 359 359 359 360 361 361 361 358 356 356 354 355 355 354 354
316 309 297 294 291 292 293 300 302 307 310 310 310 318 333 332 341 343 349 352 356 356 357 359 364 364 363 360 360 360 359 359 359 360 359 359 359 359 360 360 360 357 355 355 353 354 355 354 354
305 300 299 290 290 297 300 302 304 306 310 310 310 308 335 347 342 348 351 354 354 356 357 361 363 363 362 360 359 360 360 359 359 360 359 358 358 359 359 359 359 358 354 353 354 356 356 355 354
299 295 289 289 292 296 302 303 304 303 304 306 308 309 335 348 352 351 351 353 352 354 356 360 363 362 362 360 359 360 359 359 359 360 359 358 359 359 359 359 359 358 356 355 354 356 356 355 355
294 292 285 285 291 299 301 304 302 303 304 306 306 317 333 343 350 349 350 348 353 354 358 359 362 362 361 360 360 359 359 359 358 358 359 359 359 359 359 359 358 358 357 356 356 356 355 354 354
292 288 285 285 292 295 298 304 300 301 300 302 306 327 333 338 343 350 348 350 352 356 358 359 358 360 361 360 359 359 358 358 358 357 358 358 359 359 359 358 357 356 356 356 356 355 354 353 352
296 290 286 288 289 291 299 301 302 300 301 306 316 326 328 338 341 347 349 352 352 353 356 357 357 357 356 356 359 359 358 358 357 357 357 357 358 358 358 355 356 355 355 355 355 355 354 353 352
298 288 284 287 290 292 297 296 302 305 302 303 311 325 337 341 341 345 347 349 349 350 353 355 355 354 355 355 356 359 358 358 357 357 357 354 350 352 353 354 354 355 354 353 354 354 354 353 353
292 286 288 294 295 293 297 297 299 300 300 302 305 338 339 338 339 341 343 344 346 347 350 353 354 354 353 356 355 353 354 353 352 352 352 349 347 348 352 353 355 355 355 354 353 353 353 352 344
291 289 294 296 299 298 298 298 301 297 296 301 301 333 335 337 338 337 338 345 345 347 350 352 353 352 352 353 352 354 353 351 351 352 351 348 347 347 349 346 347 346 350 346 347 345 344 342 339
288 293 296 296 298 298 297 300 299 299 300 303 304 336 336 334 333 331 330 335 343 345 347 349 348 346 349 350 350 352 350 351 349 351 350 346 344 342 343 343 342 342 342 341 341 340 340 339 339
287 290 295 299 298 297 298 297 297 299 302 305 304 317 334 333 331 329 337 337 340 340 342 345 346 346 349 348 349 349 349 350 350 349 350 348 344 341 341 341 339 340 341 340 339 338 337 337 337
292 292 294 294 293 294 296 298 297 300 303 303 303 302 305 307 327 328 337 335 337 338 340 343 343 346 347 345 346 347 349 349 348 348 349 349 344 340 339 338 340 338 339 337 335 336 337 339 338
293 291 293 293 295 292 295 293 295 300 302 301 301 301 301 305 318 328 337 335 336 337 340 341 341 343 343 342 343 343 345 345 344 344 346 346 340 339 339 336 338 335 335 334 334 334 334 334 336
291 290 286 289 293 294 295 290 298 300 300 299 301 301 301 302 305 326 336 338 337 337 338 339 343 341 337 336 338 339 340 342 341 343 345 344 343 342 336 334 337 336 335 335 335 334 331 332 333
287 281 284 287 292 293 293 289 297 299 298 298 299 300 301 300 302 321 336 340 339 338 337 336 337 335 334 331 335 337 336 338 340 342 343 342 342 340 336 335 335 337 335 334 335 334 333 329 331
283 283 285 286 291 291 291 290 294 297 297 297 297 298 299 300 301 320 335 339 340 338 339 336 334 333 331 330 336 338 333 333 337 338 342 342 341 341 338 336 336 335 333 333 333 331 331 331 330
290 288 287 289 294 292 290 290 292 296 295 295 295 295 297 298 300 318 332 336 341 339 337 334 330 330 330 327 330 337 332 331 332 334 337 338 342 342 340 337 336 334 332 333 332 331 328 328 329
290 288 287 291 295 291 291 291 294 294 295 295 297 296 297 297 297 317 330 333 336 335 335 332 330 329 330 332 328 330 327 328 331 332 334 336 340 339 337 337 338 334 332 331 331 329 328 326 331
290 289 288 289 293 293 291 289 292 297 296 297 297 297 298 299 298 318 327 328 331 333 333 332 331 329 330 330 328 327 327 327 330 328 330 333 334 338 331 332 330 328 329 330 328 328 329 323 323
288 294 294 292 289 282 291 281 289 293 295 297 298 296 298 299 298 319 326 327 329 331 333 332 330 328 330 329 329 327 323 324 328 328 328 330 331 333 331 330 330 329 328 326 326 328 327 322 319
291 296 293 293 288 284 287 283 287 292 292 295 297 298 300 300 300 317 326 329 330 331 329 327 328 328 329 330 330 331 328 330 331 332 330 328 330 333 337 335 331 325 325 324 324 321 320 320 320
298 294 292 291 288 279 286 285 285 289 293 295 298 300 301 300 299 317 327 331 331 330 327 326 327 326 329 330 332 332 330 327 327 323 323 322 322 323 324 324 324 323 322 321 319 317 316 315 315
295 289 280 278 278 279 286 285 287 293 297 299 299 300 300 299 307 322 327 329 334 334 332 329 323 319 321 323 323 323 322 324 323 319 318 320 315 315 316 317 317 317 317 317 315 313 313 312 312
292 289 279 275 276 279 289 283 288 299 305 306 308 308 307 298 315 324 327 331 325 320 321 319 317 316 317 317 316 316 315 315 313 313 312 313 312 314 313 314 314 315 315 314 313 311 311 311 311
293 288 290 285 287 282 285 288 298 306 305 308 312 315 316 318 321 322 320 318 317 316 316 316 316 315 315 315 315 314 314 313 312 312 312 312 312 314 313 314 313 313 313 313 311 311 311 311 311
294 294 285 286 279 279 285 288 289 297 301 306 308 309 312 315 315 316 317 316 317 317 316 317 317 315 313 313 313 312 311 312 312 312 310 311 311 312 312 311 311 311 311 311 310 309 310 310 310
294 291 290 288 285 280 281 286 297 299 303 305 307 309 310 311 312 313 313 312 311 312 313 313 313 312 309 311 308 309 309 311 310 309 309 309 309 310 310 311 311 311 310 310 308 308 308 308 308
295 291 291 282 282 285 285 286 301 303 306 307 308 309 310 311 309 307 306 307 308 308 309 309 309 307 305 305 305 305 305 305 305 305 306 307 307 307 308 310 309 309 308 307 306 306 307 307 306
Wind_Speed
6 5 1 4 4 5 5 9 3 4 4 3 2 5 7 3 7 6 1 10 15 15 15 16 20 18 18 18 17 17 17 18 18 17 16 16 16 16 14 14 14 13 14 13 12 12 11 11 11
3 1 4 3 5 1 7 6 14 8 5 10 10 1 2 4 3 5 9 8 16 14 11 11 19 19 18 19 18 18 18 18 17 17 16 16 15 14 14 13 13 13 13 13 13 13 12 12 11
2 2 4 5 5 9 8 5 2 4 5 3 4 5 3 3 5 6 3 15 16 13 12 11 18 19 18 18 16 16 16 17 17 17 16 14 14 13 12 11 11 12 13 12 11 10 10 10 10
2 4 4 4 10 12 10 4 4 9 9 2 4 7 3 6 6 6 13 15 14 11 9 13 14 16 17 17 16 15 15 14 15 14 14 13 12 11 11 11 10 10 10 10 10 8 7 7 7
4 3 2 3 9 7 7 3 1 6 6 12 6 6 7 4 8 14 15 13 14 10 8 9 12 14 14 15 15 15 15 14 14 13 13 13 10 8 8 8 7 7 7 7 6 4 4 4 3
3 4 2 6 10 17 5 5 3 6 5 15 4 4 5 4 5 10 14 11 11 11 10 9 12 13 13 13 12 12 13 14 14 13 13 12 10 9 6 5 5 4 4 4 4 3 3 4 3
6 5 7 5 15 17 6 6 7 8 5 15 4 5 4 4 4 11 12 12 12 12 12 10 8 11 13 11 10 9 10 11 12 12 11 11 11 9 8 6 4 3 2 2 2 3 4 6 6
5 4 5 7 7 11 4 5 0 4 8 8 7 6 5 7 6 5 13 13 13 12 14 12 10 9 9 9 13 11 9 9 9 9 10 11 9 8 7 7 5 4 3 3 3 4 6 7 8
4 2 6 9 10 7 3 1 2 4 4 7 3 5 7 13 8 9 11 10 11 10 12 12 11 9 9 9 11 14 14 10 9 8 8 7 4 4 5 5 5 4 3 4 5 6 7 8 9
5 6 10 6 6 5 4 1 5 5 10 8 3 8 12 17 16 14 14 13 13 14 12 11 12 8 9 8 7 7 9 8 8 7 6 4 5 3 3 3 4 4 5 5 6 7 8 7 3
6 9 6 4 7 7 6 6 3 3 7 3 5 6 7 10 8 4 1 11 12 13 10 10 11 10 8 8 5 4 3 3 5 9 7 6 5 4 3 3 2 1 4 3 4 4 3 4 3
8 9 9 5 6 4 5 6 6 7 10 6 5 10 5 5 4 3 8 7 13 12 13 11 11 10 9 7 5 6 5 6 5 7 9 6 4 4 4 3 4 4 2 2 3 3 5 6 5
5 2 5 14 10 8 9 11 7 15 12 10 3 7 14 9 4 6 6 7 10 12 13 14 13 12 12 11 8 8 8 8 7 6 8 8 7 5 3 3 1 3 3 2 3 2 2 3 4
6 14 15 7 6 5 10 13 6 12 11 12 8 8 7 10 12 6 9 9 11 10 12 13 12 11 13 11 12 10 10 8 7 7 8 7 4 4 4 4 5 4 5 5 4 6 5 5 5
5 9 8 9 18 7 3 15 26 8 8 11 8 7 8 8 11 18 16 15 16 13 13 14 13 10 12 11 8 3 6 5 5 3 6 8 8 7 6 4 5 5 4 6 5 5 3 4 4
7 6 9 4 9 7 13 23 17 9 11 12 11 8 8 9 11 10 14 14 14 15 15 11 10 9 5 5 4 3 2 3 5 4 4 9 6 10 8 6 5 5 4 3 1 1 3 3 4
6 4 8 6 10 6 14 7 16 9 11 11 9 9 7 7 7 8 14 17 18 17 15 13 9 7 6 6 4 4 3 4 4 6 6 10 11 12 10 7 6 5 5 5 3 1 3 0 1
6 4 4 7 7 10 16 10 9 7 8 11 10 9 9 7 11 12 12 15 15 14 14 9 6 7 6 4 4 3 4 3 3 3 6 9 8 10 8 6 8 9 6 3 5 4 4 2 5
8 6 6 5 8 8 8 7 10 10 8 9 8 9 9 10 6 11 9 7 13 14 14 12 10 9 8 4 4 3 3 2 1 2 5 5 7 10 4 4 8 9 7 6 3 3 4 4 3
8 7 6 3 5 5 7 9 9 10 10 9 13 9 10 6 5 8 11 11 16 18 17 12 12 9 6 6 3 3 3 3 3 3 4 4 2 5 3 5 4 3 2 3 3 3 4 3 5
19 16 6 4 1 3 3 7 8 9 8 10 9 10 7 11 8 10 14 14 12 16 16 16 16 12 9 6 4 3 3 2 2 2 2 2 4 4 5 5 5 4 3 3 3 4 6 3 3
21 11 9 6 3 4 5 6 7 8 11 11 14 9 10 9 7 9 13 14 16 16 14 11 10 11 10 7 6 4 4 3 3 3 3 3 4 3 4 4 5 4 3 4 4 4 4 3 3
9 10 7 5 4 1 7 1 9 2 8 8 9 9 11 11 13 17 18 19 17 12 11 9 9 10 9 9 6 5 5 4 3 3 6 5 5 5 5 4 4 4 3 3 3 2 3 3 3
5 7 5 3 4 6 11 7 7 5 7 4 5 8 11 9 10 11 9 11 11 8 7 9 9 6 6 6 5 7 6 4 4 3 4 3 3 3 5 6 5 5 4 3 3 2 2 3 3
9 9 2 3 4 9 8 7 9 5 5 2 6 9 10 9 14 14 15 12 12 13 10 8 9 7 8 7 6 4 4 5 5 5 4 5 3 3 5 4 5 3 3 3 2 0 2 2 2
9 10 7 7 6 4 9 6 5 3 5 6 9 8 13 6 10 13 12 13 11 13 13 13 12 9 9 7 8 6 7 6 5 6 5 5 3 3 3 4 4 3 2 1 0 1 2 3 4
10 13 10 4 2 5 3 3 0 8 13 15 16 19 17 16 15 14 14 14 15 14 13 14 13 11 9 9 8 9 9 9 8 8 6 4 3 2 4 4 4 3 3 2 2 2 4 3 5
10 10 7 1 4 3 2 3 4 4 10 14 17 17 16 17 17 16 16 15 12 11 12 13 10 11 9 8 8 6 7 7 6 6 6 5 2 2 3 3 3 4 4 4 4 4 5 5 5
9 9 5 7 5 5 4 1 1 7 12 17 15 16 18 19 20 17 14 14 14 13 11 9 11 9 8 6 7 7 7 6 5 6 5 3 2 3 3 3 3 3 3 4 4 6 6 7 6
2 6 10 5 5 3 6 2 5 8 16 17 17 18 19 19 17 17 16 16 15 14 12 10 8 9 7 7 8 7 7 7 8 7 7 6 6 5 5 5 4 5 5 6 5 6 6 6 5
Wind_Direction
279 308 40 32 44 61 260 256 240 271 272 321 332 261 205 174 171 213 112 149 128 151 158 158 151 148 141 137 136 131 126 123 123 124 124 124 125 128 133 133 133 133 137 141 144 147 143 136 135
294 268 39 89 114 202 255 241 237 222 306 321 318 124 23 260 79 110 107 148 143 140 146 157 152 148 146 144 141 138 135 132 130 129 129 132 132 133 136 137 136 136 141 148 156 157 151 148 144
248 59 103 144 164 206 233 228 195 288 283 301 281 290 169 355 35 150 101 137 133 144 147 162 159 149 144 141 139 140 136 135 135 137 137 136 137 137 134 136 137 142 149 156 164 166 158 155 151
102 20 21 135 214 236 217 158 2 339 322 343 48 336 325 333 161 141 132 136 131 132 138 156 158 142 137 141 141 138 134 135 137 138 137 139 139 139 141 143 146 151 157 164 171 177 169 165 161
41 59 129 221 250 247 240 277 43 287 291 278 26 297 294 16 85 121 128 141 134 123 121 139 141 128 131 142 145 142 141 142 142 143 142 142 137 135 140 143 141 145 155 168 181 196 194 188 179
65 101 105 212 244 249 253 240 238 253 256 285 265 185 268 333 141 139 135 134 122 113 113 121 130 128 134 142 145 145 146 146 147 149 147 143 142 138 134 125 130 144 160 179 197 216 240 244 265
146 121 203 209 238 261 193 219 210 242 285 283 227 168 255 264 252 152 136 119 111 114 123 125 130 137 126 121 130 139 146 149 148 147 147 147 149 150 151 153 152 159 174 216 223 241 267 279 281
138 123 192 210 199 258 229 207 301 265 275 296 174 184 230 221 172 156 129 118 125 131 137 141 143 141 138 134 131 138 147 147 143 145 148 147 153 155 162 177 185 183 200 234 264 274 274 276 281
140 185 214 208 182 221 198 65 312 288 285 302 246 173 218 137 146 147 128 124 134 149 154 154 153 150 140 144 157 151 152 136 134 137 144 146 140 159 186 190 198 192 207 231 241 250 262 276 285
168 192 217 207 211 215 247 280 352 327 323 305 317 16 129 142 165 165 160 153 156 158 161 157 148 138 138 145 142 150 164 159 153 149 155 144 140 141 172 214 221 217 224 244 255 256 262 273 286
200 226 201 238 221 238 255 299 234 273 284 255 342 102 128 145 185 92 51 167 155 142 156 159 146 138 145 145 139 151 151 166 164 161 164 162 152 172 176 179 206 206 250 228 241 264 269 262 258
237 218 208 200 245 270 260 275 271 211 247 260 310 156 160 179 214 137 126 131 144 149 147 148 146 141 146 139 143 167 165 176 183 189 164 161 160 176 185 184 198 210 216 288 353 345 340 328 321
249 275 208 217 233 245 274 261 264 262 272 282 226 165 172 216 165 134 125 112 134 150 157 165 167 159 156 152 160 173 184 189 186 173 181 169 173 178 163 186 136 64 94 89 57 30 327 314 317
211 214 242 254 234 230 250 271 209 254 239 264 193 202 192 191 171 146 155 157 154 161 170 166 169 166 165 168 182 188 182 182 182 187 195 168 166 112 140 123 125 93 100 104 101 88 86 91 84
252 273 272 237 243 244 192 272 243 252 245 259 250 212 185 217 153 180 172 172 164 175 165 172 175 174 179 175 172 194 198 199 175 199 179 148 138 147 126 121 123 121 125 128 130 117 147 137 121
200 207 248 184 188 225 162 255 272 202 207 236 246 225 205 203 191 186 172 164 169 163 175 176 180 186 185 119 121 105 66 98 98 106 119 116 111 125 117 122 136 145 135 99 49 130 114 322 13
241 205 215 258 192 226 192 244 268 203 201 227 238 252 227 177 215 182 180 168 173 173 174 179 178 179 167 107 100 77 98 114 138 125 128 131 141 131 139 152 163 181 175 184 213 179 310 250 235
191 181 168 174 212 202 244 241 273 262 239 209 223 231 253 252 189 188 187 179 172 174 177 180 177 168 142 113 108 94 73 71 71 109 143 162 149 153 162 168 194 185 185 205 170 180 195 215 212
190 207 191 186 224 187 232 239 236 255 250 264 225 222 230 237 264 179 172 159 162 169 177 183 175 182 157 140 130 148 162 109 160 174 192 185 187 197 175 195 190 186 183 202 128 132 168 239 236
236 225 207 208 243 166 259 264 239 241 247 217 239 239 232 231 139 161 158 163 175 175 183 180 193 180 177 178 145 127 143 186 170 183 222 222 227 136 158 198 173 245 99 153 198 164 136 214 193
224 224 168 166 23 303 357 300 288 268 237 241 243 229 226 217 190 164 168 177 167 178 185 192 192 180 181 172 111 87 80 57 107 207 211 212 190 164 153 150 142 172 164 190 196 184 189 226 217
216 190 185 179 154 219 141 275 272 272 259 227 236 215 221 211 149 172 172 171 179 191 191 192 187 185 183 159 160 143 156 165 193 177 174 173 208 211 164 153 156 184 187 205 205 181 194 184 226
202 167 169 167 171 345 245 228 270 270 269 228 223 226 224 214 170 177 182 179 184 178 180 170 171 188 184 177 170 156 167 173 165 153 159 171 195 196 174 167 162 152 142 177 166 135 151 182 161
123 134 182 156 126 247 228 163 277 248 220 202 216 225 225 198 171 168 159 153 159 143 136 142 161 171 157 153 175 196 190 169 151 120 129 129 111 109 100 116 124 114 116 112 106 133 167 195 205
164 137 179 163 182 227 151 159 231 272 288 245 249 255 233 159 141 140 145 141 147 149 136 110 95 58 60 67 47 42 108 162 135 111 113 106 77 47 61 73 87 81 96 109 131 162 293 292 284
178 167 162 176 171 197 118 202 236 3 10 49 52 53 43 59 124 139 135 129 107 86 88 87 88 87 82 97 84 77 73 81 76 84 84 70 74 97 98 92 89 91 91 73 300 285 265 248 255
172 199 187 83 132 107 174 177 284 38 37 47 56 65 64 66 66 73 79 89 87 84 90 100 96 82 63 70 73 69 66 67 75 66 78 79 82 90 72 64 44 16 348 331 308 280 281 274 268
169 160 177 155 204 137 145 121 195 7 73 79 75 79 79 77 76 80 80 74 73 77 89 86 73 91 82 75 71 69 81 85 82 80 80 80 60 48 40 19 7 344 337 328 322 296 281 267 259
198 176 90 137 151 161 126 280 241 127 104 94 89 90 90 89 86 76 71 64 61 49 43 57 76 77 75 65 67 62 56 48 67 70 62 54 30 12 356 331 315 295 291 293 279 270 268 262 268
238 181 173 135 203 211 128 208 98 128 118 105 98 98 95 88 87 85 77 71 66 61 52 40 52 72 70 73 72 69 59 44 42 31 15 9 0 353 340 332 328 310 302 298 301 287 281 271 270